EN

Hourly Weather Barskoon

Today, 17 January, Sunday

Time Temperature Precipitation Wind Pressure Humidity
00:00 -7°C° 0 mm 5 mps 589 mmHg 18%
01:00 -7°C° 0 mm 4 mps 589 mmHg 17%
02:00 -7°C° 0 mm 4 mps 588 mmHg 16%
03:00 -7°C° 0 mm 4 mps 588 mmHg 15%
04:00 -7°C° 0 mm 4 mps 588 mmHg 13%
05:00 -6°C° 0 mm 3 mps 587 mmHg 11%
06:00 -6°C° 0 mm 3 mps 587 mmHg 10%
07:00 -6°C° 0 mm 3 mps 587 mmHg 10%
08:00 -6°C° 0 mm 3 mps 587 mmHg 9%
09:00 -3°C° 0 mm 2 mps 587 mmHg 20%
10:00 -1°C° 0 mm 2 mps 587 mmHg 31%
11:00 +1°C° 0 mm 2 mps 587 mmHg 42%
12:00 +2°C° 0 mm 1 mps 586 mmHg 44%
13:00 +2°C° 0 mm 1 mps 585 mmHg 46%
14:00 +2°C° 0 mm 1 mps 585 mmHg 49%
15:00 +1°C° 0 mm 1 mps 584 mmHg 36%
16:00 -3°C° 0 mm 2 mps 584 mmHg 23%
17:00 -5°C° 0 mm 2 mps 584 mmHg 9%
18:00 -5°C° 0 mm 2 mps 584 mmHg 9%
19:00 -4°C° 0 mm 2 mps 583 mmHg 9%
20:00 -4°C° 0 mm 2 mps 583 mmHg 8%
21:00 -4°C° 0 mm 2 mps 583 mmHg 9%
22:00 -5°C° 0 mm 3 mps 583 mmHg 9%
23:00 -5°C° 0 mm 3 mps 583 mmHg 10%

Tomorrow, 18 January, Monday

Time Temperature Precipitation Wind Pressure Humidity
00:00 -5°C° 0 mm 3 mps 582 mmHg 12%
01:00 -4°C° 0 mm 3 mps 582 mmHg 15%
02:00 -4°C° 0 mm 3 mps 582 mmHg 17%
03:00 -4°C° 0 mm 3 mps 581 mmHg 20%
04:00 -3°C° 0 mm 2 mps 581 mmHg 23%
05:00 -2°C° 0 mm 2 mps 581 mmHg 26%
06:00 -3°C° 0 mm 2 mps 581 mmHg 25%
07:00 -3°C° 0 mm 2 mps 581 mmHg 23%
08:00 -3°C° 0 mm 2 mps 581 mmHg 22%
09:00 -2°C° 0 mm 2 mps 581 mmHg 30%
10:00 +1°C° 0 mm 2 mps 582 mmHg 38%
11:00 +3°C° 0 mm 2 mps 582 mmHg 45%
12:00 +4°C° 0 mm 1 mps 581 mmHg 51%
13:00 +4°C° 0 mm 1 mps 581 mmHg 56%
14:00 +4°C° 0 mm 1 mps 581 mmHg 62%
15:00 +2°C° 0 mm 1 mps 581 mmHg 54%
16:00 0°C° 0 mm 1 mps 581 mmHg 46%
17:00 -4°C° 0 mm 2 mps 581 mmHg 38%
18:00 -4°C° 0 mm 2 mps 581 mmHg 35%
19:00 -4°C° 0 mm 2 mps 581 mmHg 31%
20:00 -5°C° 0 mm 2 mps 582 mmHg 27%
21:00 -5°C° 0 mm 2 mps 582 mmHg 27%
22:00 -5°C° 0 mm 2 mps 582 mmHg 27%
23:00 -5°C° 0 mm 2 mps 582 mmHg 27%

Day after tomorrow, 19 January, Tuesday

Time Temperature Precipitation Wind Pressure Humidity
00:00 -5°C° 0 mm 2 mps 582 mmHg 27%
01:00 -6°C° 0 mm 2 mps 582 mmHg 28%
02:00 -6°C° 0 mm 2 mps 582 mmHg 28%
03:00 -6°C° 0 mm 2 mps 582 mmHg 30%
04:00 -6°C° 0 mm 2 mps 582 mmHg 31%
05:00 -7°C° 0 mm 3 mps 582 mmHg 33%
06:00 -5°C° 0 mm 2 mps 583 mmHg 36%
07:00 -5°C° 0 mm 2 mps 583 mmHg 40%
08:00 -5°C° 0 mm 2 mps 584 mmHg 43%
09:00 -3°C° 0 mm 2 mps 584 mmHg 47%
10:00 -2°C° 0 mm 2 mps 584 mmHg 51%
11:00 +2°C° 0 mm 1 mps 584 mmHg 54%
12:00 +2°C° 0 mm 1 mps 584 mmHg 57%
13:00 +2°C° 0 mm 1 mps 583 mmHg 60%
14:00 +2°C° 0 mm 1 mps 583 mmHg 63%
15:00 -2°C° 0 mm 2 mps 583 mmHg 62%
16:00 -3°C° 0 mm 2 mps 583 mmHg 60%
17:00 -5°C° 0 mm 2 mps 584 mmHg 59%
18:00 -5°C° 0 mm 2 mps 584 mmHg 59%
19:00 -6°C° 0 mm 3 mps 584 mmHg 58%
20:00 -7°C° 0 mm 3 mps 585 mmHg 58%
21:00 -7°C° 0 mm 3 mps 585 mmHg 58%
22:00 -7°C° 0 mm 3 mps 585 mmHg 59%
23:00 -8°C° 0 mm 3 mps 585 mmHg 59%

20 January, Wednesday

Time Temperature Precipitation Wind Pressure Humidity
00:00 -8°C° 0 mm 3 mps 585 mmHg 60%
01:00 -8°C° 0 mm 3 mps 585 mmHg 60%
02:00 -8°C° 0 mm 3 mps 585 mmHg 61%
03:00 -7°C° 0 mm 3 mps 585 mmHg 62%
04:00 -6°C° 0 mm 2 mps 586 mmHg 63%
05:00 -6°C° 0 mm 2 mps 586 mmHg 64%
06:00 -6°C° 0.1 mm 2 mps 586 mmHg 70%
07:00 -6°C° 0.1 mm 2 mps 587 mmHg 76%
08:00 -7°C° 0.1 mm 3 mps 588 mmHg 82%
09:00 -5°C° 0.1 mm 2 mps 588 mmHg 83%
10:00 -4°C° 0.1 mm 2 mps 587 mmHg 84%
11:00 -3°C° 0.1 mm 2 mps 587 mmHg 85%
12:00 -3°C° 0.1 mm 2 mps 587 mmHg 85%
13:00 -3°C° 0.1 mm 2 mps 587 mmHg 86%
14:00 -2°C° 0.1 mm 2 mps 587 mmHg 86%
15:00 -4°C° 0.1 mm 2 mps 587 mmHg 85%
16:00 -6°C° 0.1 mm 2 mps 587 mmHg 83%
17:00 -7°C° 0.1 mm 2 mps 587 mmHg 82%
18:00 -9°C° 0 mm 3 mps 587 mmHg 75%
19:00 -9°C° 0 mm 3 mps 588 mmHg 68%
20:00 -11°C° 0 mm 4 mps 588 mmHg 62%
21:00 -11°C° 0 mm 4 mps 587 mmHg 59%
22:00 -11°C° 0 mm 4 mps 587 mmHg 56%
23:00 -12°C° 0 mm 5 mps 587 mmHg 53%

21 January, Thursday

Time Temperature Precipitation Wind Pressure Humidity
00:00 -10°C° 0 mm 4 mps 586 mmHg 48%
01:00 -10°C° 0 mm 4 mps 586 mmHg 43%
02:00 -10°C° 0 mm 4 mps 585 mmHg 39%
03:00 -10°C° 0 mm 4 mps 585 mmHg 38%
04:00 -9°C° 0 mm 4 mps 585 mmHg 37%
05:00 -9°C° 0 mm 4 mps 584 mmHg 36%
06:00 -9°C° 0 mm 4 mps 584 mmHg 35%
07:00 -9°C° 0 mm 4 mps 584 mmHg 34%
08:00 -8°C° 0 mm 4 mps 584 mmHg 33%
09:00 -7°C° 0 mm 4 mps 583 mmHg 38%
10:00 -4°C° 0 mm 4 mps 583 mmHg 43%
11:00 -2°C° 0 mm 4 mps 582 mmHg 48%
12:00 -1°C° 0 mm 3 mps 581 mmHg 50%
13:00 -1°C° 0 mm 3 mps 580 mmHg 53%
14:00 -1°C° 0 mm 2 mps 579 mmHg 55%
15:00 -4°C° 0 mm 3 mps 579 mmHg 48%
16:00 -5°C° 0 mm 3 mps 579 mmHg 41%
17:00 -6°C° 0 mm 3 mps 579 mmHg 34%
18:00 -6°C° 0 mm 3 mps 579 mmHg 35%
19:00 -7°C° 0 mm 4 mps 579 mmHg 36%
20:00 -7°C° 0 mm 4 mps 580 mmHg 38%
21:00 -5°C° 0 mm 4 mps 579 mmHg 36%
22:00 -5°C° 0 mm 4 mps 579 mmHg 35%
23:00 -5°C° 0 mm 4 mps 578 mmHg 33%

22 January, Friday

Time Temperature Precipitation Wind Pressure Humidity
00:00 -5°C° 0 mm 4 mps 578 mmHg 35%
01:00 -5°C° 0 mm 3 mps 578 mmHg 36%
02:00 -5°C° 0 mm 3 mps 577 mmHg 38%
03:00 -5°C° 0 mm 3 mps 578 mmHg 41%
04:00 -5°C° 0 mm 3 mps 578 mmHg 43%
05:00 -5°C° 0 mm 3 mps 578 mmHg 45%
06:00 -4°C° 0 mm 2 mps 579 mmHg 53%
07:00 -4°C° 0 mm 2 mps 579 mmHg 60%
08:00 -2°C° 0 mm 1 mps 580 mmHg 68%
09:00 -4°C° 0.3 mm 2 mps 580 mmHg 76%
10:00 -4°C° 0.3 mm 2 mps 581 mmHg 84%
11:00 -4°C° 0.3 mm 2 mps 581 mmHg 93%
12:00 -5°C° 0.4 mm 3 mps 581 mmHg 93%
13:00 -7°C° 0.4 mm 4 mps 581 mmHg 94%
14:00 -7°C° 0.4 mm 5 mps 581 mmHg 95%
15:00 -8°C° 0.3 mm 5 mps 582 mmHg 96%
16:00 -10°C° 0.3 mm 5 mps 582 mmHg 97%
17:00 -10°C° 0.3 mm 4 mps 583 mmHg 98%
18:00 -11°C° 0.3 mm 5 mps 584 mmHg 98%
19:00 -12°C° 0.3 mm 5 mps 584 mmHg 99%
20:00 -13°C° 0.3 mm 5 mps 584 mmHg 99%
21:00 -14°C° 0.3 mm 5 mps 585 mmHg 98%
22:00 -14°C° 0.3 mm 5 mps 585 mmHg 98%
23:00 -15°C° 0.3 mm 4 mps 585 mmHg 98%
Show more

We Need Your Consent

Meteoprog and our Service Providers may store and access personal data such as cookies, device identifiers or other similar technologies on your device and process such data to personalise content and ads, as well as provide social media features and to analyse the traffic.

  • Store and/or access information on your device

    Cookies, device identifiers or other information can be stored or accessed on your device for the purposes indicated above.

  • Personalised ads and content, ad and content measurement, audience insights, and products development

    Ads and content can be personalised based on a profile. More data can be added to better personalise ads and content. Ad and content performance can be measured. Insights about the audience who saw the ads and content can be derived. Such data can be used to develop or improve user’s experience, systems and software.

By clicking ‘I Agree’ you will allow the use of indicated cookies, device identifiers, web beacons or other similar technologies. Your settings can be changed in the browser on your device.

For certain purposes, legitimate interests may be relied on, rather than consent. You can read more about this in our Privacy and Cookie Policy.